• Join FlightAware (Why Join?)
  • Login
  • US Flag 
05:59AM EDT


 

Airport Tracker/Info


-or-


 

Live Flight TrackerFlight Track Log ✈ SWA3943 ✈ 26-Apr-2013 ✈ KCMH - KBWI

Flight Track Log - Related Links

Times and Time Zones

All times are in EDT time to prevent confusion due to time zone crossing. See the SWA3943 flight status page for this flight to view local times or setup timezone preferences in your user account.

Time Position Orientation Groundspeed Altitude Reporting Facility
EDT Latitude Longitude Course Direction KTS MPH feet Rate Location/Type
08:35PM 39.9917 -82.8244 91° East 178 205 2,600  Level Indianapolis Center
08:36PM 39.9917 -82.7856 90° East 205 236 3,600 2,040 Climbing Indianapolis Center
08:36PM 39.9911 -82.7375 91° East 240 276 4,700 2,400 Climbing Indianapolis Center
08:37PM 39.9900 -82.6956 92° East 236 272 6,100 3,180 Climbing Indianapolis Center
08:38PM 39.9833 -82.5964 95° East 272 313 9,700 2,940 Climbing Indianapolis Center
08:39PM 39.9836 -82.4847 90° East 307 353 12,200 2,640 Climbing Indianapolis Center
08:40PM 39.9869 -82.3578 88° East 344 396 15,200 2,700 Climbing Indianapolis Center
08:41PM 39.9908 -82.2236 88° East 361 415 17,800 2,100 Climbing Indianapolis Center
08:42PM 39.9939 -82.0792 88° East 388 447 19,600 2,100 Climbing Indianapolis Center
08:43PM 39.9983 -81.9306 88° East 403 464 22,200 2,220 Climbing Indianapolis Center
08:44PM 40.0011 -81.7503 89° East 421 484 24,200 1,980 Climbing Indianapolis Center
08:45PM 40.0039 -81.5872 89° East 438 504 26,300 1,740 Climbing Indianapolis Center
08:46PM 39.9956 -81.4214 94° East 455 524 27,800 1,260 Climbing Indianapolis Center
08:47PM 39.9708 -81.2483 101° East 479 551 29,000 540 Climbing Indianapolis Center
08:48PM 39.9469 -81.0739 100° East 502 578 29,000  Level Indianapolis Center
08:49PM 39.9222 -80.8856 100° East 523 602 29,000  Level Indianapolis Center
08:50PM 39.8964 -80.7014 100° East 517 595 29,000  Level Indianapolis Center
08:51PM 39.8703 -80.5183 100° East 514 592 29,000  Level Indianapolis Center
08:52PM 39.8444 -80.3331 100° East 517 595 29,000  Level Indianapolis Center
08:53PM 39.8344 -80.2392 98° East 519 597 29,000  Level Washington Center
08:54PM 39.8083 -80.0539 100° East 524 603 29,000  Level Washington Center
08:55PM 39.7794 -79.8683 101° East 524 603 29,000  Level Washington Center
08:56PM 39.7547 -79.6861 100° East 524 603 29,000  Level Washington Center
08:57PM 39.7253 -79.5036 102° East 524 603 29,000 -420 Level Washington Center
08:58PM 39.6978 -79.3161 101° East 524 603 28,200 -1,740 Descending Washington Center
08:59PM 39.6697 -79.1394 102° East 519 597 25,600 -1,860 Descending Washington Center
09:00PM 39.6392 -78.9733 103° East 492 566 24,600 -900 Descending Washington Center
09:01PM 39.6000 -78.8072 107° East 480 552 23,900 -900 Descending Washington Center
09:02PM 39.5647 -78.6442 106° East 475 547 22,800 -1,680 Descending Washington Center
09:03PM 39.5308 -78.4894 106° East 461 531 20,600 -2,220 Descending Washington Center
09:04PM 39.4969 -78.3428 107° East 440 506 18,400 -2,280 Descending Washington Center
09:05PM 39.4667 -78.2044 106° East 423 487 16,100 -1,680 Descending Washington Center
09:06PM 39.4422 -78.0692 103° East 400 460 15,000 -600 Descending Washington Center
09:07PM 39.4411 -77.9267 91° East 388 447 15,000  Level Washington Center
09:08PM 39.4419 -77.7736 90° East 388 447 15,000  Level Washington Center
09:09PM 39.4422 -77.6311 90° East 388 447 15,000 -1,020 Level Washington Center
09:10PM 39.4422 -77.4969 90° East 383 441 13,000 -2,100 Descending Washington Center
09:11PM 39.4444 -77.3653 89° East 372 428 10,900 -1,440 Descending Washington Center
09:11PM 39.4500 -77.3167 82° East 357 411 11,000 60 Climbing Potomac TRACON
09:12PM 39.4667 -77.1833 81° East 360 414 11,000  Level Potomac TRACON
09:13PM 39.4833 -77.0500 81° East 356 410 11,000 -60 Level Potomac TRACON
09:14PM 39.5000 -76.9333 79° East 361 415 10,900 -660 Descending Potomac TRACON
09:15PM 39.4833 -76.8000 99° East 312 359 9,700 -1,320 Descending Potomac TRACON
09:16PM 39.4500 -76.7000 113° Southeast 307 353 8,000 -1,500 Descending Potomac TRACON
09:17PM 39.3833 -76.6333 142° Southeast 289 333 6,600 -1,440 Descending Potomac TRACON
09:18PM 39.3167 -76.5833 150° Southeast 275 316 5,200 -1,800 Descending Potomac TRACON
09:19PM 39.2500 -76.5667 169° South 262 302 3,100 -1,740 Descending Potomac TRACON
09:20PM 39.2000 -76.5500 166° South 261 300 2,000 -780 Descending Potomac TRACON
09:21PM 39.1333 -76.5667 191° South 203 234 1,700 -360 Descending Potomac TRACON
09:22PM 39.1167 -76.6000 237° Southwest 151 174 1,400 -540 Descending Potomac TRACON
09:23PM 39.1333 -76.6500 293° West 136 157 700 -720 Descending Potomac TRACON
09:25PM 39.1667 -76.6667 293° West  Level FlightAware Approximate
09:32PM 39.1754 -76.6683 293° West  Level Estimated
09:33PM 39.1754 -76.6683 293° West  Level Estimated
09:34PM 39.1754 -76.6683 293° West  Level Estimated